N2UGS-WX Weather Reports


Display with metric or nautical units.
time (UTC)temp
F
wind
direction
speed
MPH
gust
MPH
rain 1hr
in
rain 24hr
in
rain mn
in
humidity
%
barometer
mb
20260508225002 58 190 7.0 7.0 0.00 0.00 0.10 32 1010.5
20260508223502 60 283 4.0 9.0 0.00 0.00 0.10 30 1010.5
20260508222403 60 224 3.0 6.0 0.00 0.00 0.10 29 1010.5
20260508221002 60 300 3.0 7.0 0.00 0.00 0.10 29 1010.5
20260508215902 60 266 4.0 8.0 0.00 0.00 0.10 30 1010.5
20260508214502 60 283 4.0 7.0 0.00 0.00 0.10 31 1010.5
20260508213001 60 25 7.0 7.0 0.00 0.00 0.10 31 1010.5
20260508211501 61 225 6.0 7.0 0.00 0.00 0.10 32 1010.5
20260508210003 60 260 6.0 9.0 0.00 0.00 0.10 30 1010.5
20260508205001 61 272 5.0 8.0 0.00 0.00 0.10 32 1010.5
20260508203402 61 279 4.0 6.0 0.00 0.00 0.10 31 1010.5
20260508201902 62 243 6.0 11.0 0.00 0.00 0.10 30 1010.8
20260508200502 63 239 7.0 8.0 0.00 0.00 0.10 30 1010.8
20260508195003 62 277 3.0 6.0 0.00 0.00 0.10 34 1011.2
20260508193501 64 31 0.0 7.0 0.00 0.00 0.10 36 1011.5
20260508192402 64 110 4.0 6.0 0.00 0.00 0.10 36 1011.5
20260508191401 60 247 1.0 7.0 0.00 0.00 0.10 38 1011.9
20260508190003 61 106 1.0 5.0 0.00 0.00 0.10 40 1011.9
20260508184902 59 277 6.0 9.0 0.00 0.00 0.10 42 1011.9
20260508183402 61 293 4.0 8.0 0.00 0.00 0.10 44 1011.9
20260508182002 60 176 3.0 7.0 0.00 0.00 0.10 44 1011.9
20260508181001 59 259 3.0 9.0 0.00 0.00 0.10 42 1012.2
20260508175502 60 227 2.0 6.0 0.00 0.00 0.10 45 1012.2
20260508174002 60 225 3.0 5.0 0.00 0.00 0.10 46 1012.2
20260508172902 59 250 5.0 7.0 0.00 0.00 0.10 47 1012.2
20260508171501 60 332 6.0 7.0 0.00 0.00 0.10 46 1012.2
20260508170003 57 0 2.0 6.0 0.00 0.00 0.10 47 1012.2
20260508165002 55 264 5.0 10.0 0.00 0.00 0.10 52 1012.5
20260508163902 54 259 5.0 7.0 0.00 0.00 0.10 49 1012.5
20260508162501 56 237 6.0 6.0 0.00 0.00 0.10 52 1012.5
20260508161003 55 21 6.0 8.0 0.00 0.00 0.10 51 1012.9
20260508160002 55 243 5.0 7.0 0.00 0.00 0.10 50 1012.9
20260508154502 54 40 2.0 5.0 0.00 0.00 0.10 59 1012.9
20260508153003 52 319 9.0 9.0 0.00 0.00 0.10 62 1012.9
20260508151503 51 231 6.0 8.0 0.00 0.00 0.10 66 1013.2
20260508150003 50 7 3.0 3.0 0.00 0.00 0.10 72 1013.2
20260508144902 49 225 2.0 4.0 0.00 0.00 0.10 73 1013.2
20260508143402 50 251 3.0 5.0 0.00 0.00 0.10 73 1013.2
20260508141901 49 262 2.0 3.0 0.00 0.00 0.10 76 1013.2
20260508140402 48 256 3.0 3.0 0.00 0.00 0.10 83 1013.2
20260508135001 46 348 3.0 3.0 0.00 0.00 0.10 90 1013.2
20260508133903 45 206 3.0 3.0 0.01 0.00 0.10 92 1013.2
20260508132901 43 338 0.0 0.0 0.01 0.00 0.10 94 1013.2
20260508131402 42 109 1.0 4.0 0.01 0.00 0.10 94 1013.2
20260508125902 41 296 0.0 3.0 0.01 0.00 0.10 94 1012.9
20260508124402 41 233 0.0 2.0 0.00 0.00 0.09 94 1012.9
20260508123402 41 259 0.0 0.0 0.01 0.00 0.09 94 1012.9
20260508122002 40 313 0.0 0.0 0.02 0.00 0.09 94 1012.9
20260508120901 40 316 0.0 0.0 0.03 0.00 0.09 94 1012.9
20260508115402 40 311 1.0 3.0 0.07 0.00 0.09 94 1012.9
20260508114002 40 317 2.0 5.0 0.06 0.00 0.08 93 1012.9
20260508112901 40 12 1.0 7.0 0.06 0.00 0.08 93 1012.9
20260508111502 41 354 6.0 10.0 0.04 0.00 0.06 92 1012.5
20260508110003 41 327 0.0 0.0 0.00 0.00 0.02 92 1012.2
20260508104502 41 270 0.0 0.0 0.02 0.00 0.02 91 1011.9
20260508103002 41 197 0.0 2.0 0.02 0.00 0.02 90 1011.9
20260508101502 41 245 2.0 4.0 0.02 0.00 0.02 90 1011.9
20260508100002 42 27 3.0 3.0 0.00 0.00 0.00 93 1011.9
20260508095001 42 309 0.0 0.0 0.00 0.00 0.00 93 1011.9
20260508093502 42 261 0.0 0.0 0.00 0.00 0.00 92 1011.5
20260508092002 42 307 0.0 0.0 0.00 0.00 0.00 92 1011.9
20260508090502 42 302 0.0 0.0 0.00 0.00 0.00 93 1011.5
20260508085002 42 285 0.0 3.0 0.00 0.00 0.00 94 1011.9
20260508083501 43 319 1.0 2.0 0.00 0.00 0.00 96 1011.9
20260508082002 42 278 4.0 6.0 0.00 0.00 0.00 97 1011.9
20260508080903 43 313 0.0 8.0 0.00 0.00 0.00 97 1011.9
20260508075402 42 275 0.0 12.0 0.00 0.00 0.00 98 1011.9
20260508073901 42 251 2.0 2.0 0.00 0.00 0.00 98 1011.9
20260508072502 41 219 2.0 2.0 0.00 0.00 0.00 98 1011.9
20260508071002 41 293 0.0 0.0 0.00 0.00 0.00 98 1011.9
20260508065502 41 269 0.0 1.0 0.00 0.00 0.00 98 1012.2
20260508063902 41 279 0.0 2.0 0.00 0.00 0.00 97 1012.2
20260508062901 40 280 0.0 0.0 0.00 0.00 0.00 97 1012.2
20260508061502 40 228 0.0 0.0 0.00 0.00 0.00 97 1012.2
20260508055001 39 236 1.0 1.0 0.00 0.00 0.00 97 1012.2
20260508053502 39 288 0.0 2.0 0.00 0.00 0.00 96 1012.5
20260508052002 38 160 1.0 1.0 0.00 0.00 0.00 96 1012.5
20260508050502 38 97 0.0 0.0 0.00 0.00 0.00 96 1012.5
20260508045402 38 122 0.0 0.0 0.00 0.00 0.00 95 1012.5
20260508044003 38 275 0.0 0.0 0.00 0.00 0.00 95 1012.5
20260508042502 38 261 0.0 0.0 0.00 0.00 0.00 95 1012.5
20260508041003 38 296 0.0 0.0 0.00 0.00 0.00 94 1012.5
20260508040001 39 304 0.0 0.0 0.00 0.00 0.00 94 1012.5
20260508035003 39 256 0.0 0.0 0.00 0.00 0.05 94 1012.5
20260508033502 39 298 0.0 0.0 0.00 0.00 0.05 93 1012.5
20260508032503 39 175 0.0 0.0 0.00 0.00 0.05 93 1012.5
20260508031002 40 274 0.0 0.0 0.00 0.00 0.05 92 1012.5
20260508025501 41 250 0.0 0.0 0.01 0.00 0.05 91 1012.5
20260508023901 42 297 0.0 0.0 0.02 0.00 0.05 91 1012.2
20260508022401 42 258 0.0 3.0 0.02 0.00 0.05 91 1012.2
20260508020902 42 323 3.0 9.0 0.04 0.00 0.05 91 1012.2
20260508015401 43 31 4.0 8.0 0.04 0.00 0.04 91 1012.5
20260508013902 43 241 4.0 4.0 0.03 0.00 0.03 90 1012.5
20260508012402 43 279 2.0 6.0 0.03 0.00 0.03 88 1012.2
20260508010902 44 318 3.0 10.0 0.00 0.00 0.00 85 1012.2
20260508005901 45 321 3.0 13.0 0.00 0.00 0.00 80 1011.9
20260508004401 45 284 1.0 2.0 0.00 0.00 0.00 78 1011.5
20260508003002 45 312 0.0 2.0 0.00 0.00 0.00 78 1011.5
20260508002001 45 313 1.0 3.0 0.00 0.00 0.00 78 1011.5
20260508000901 45 345 3.0 6.0 0.00 0.00 0.00 75 1011.5
20260507235401 46 302 7.0 14.0 0.00 0.00 0.00 72 1011.5
20260507233902 49 297 11.0 11.0 0.00 0.00 0.00 63 1010.8
20260507232402 50 251 2.0 10.0 0.00 0.00 0.00 54 1010.8
20260507231002 51 263 1.0 7.0 0.00 0.00 0.00 59 1010.8
20260507225902 52 241 3.0 3.0 0.00 0.00 0.00 58 1010.5